Terug naar catalogus

NOAA 16 DEB

ActiefPO
NORAD 41424·DEBRIS·🇺🇸 United States

Gelanceerd Sep 21, 2000 vanaf Vandenberg Space Force Base

Loading…

Volgende Passages (komende 24 uur)

TLE

VersSource: Space-Track

Epoch: Sep 14, 2026, 21:42 UTC

1 41424U 00055LD  26257.90472588  .00003826  00000-0  11958-2 0  9995
2 41424  98.9644  59.6108 0021463 246.0664 113.8276 14.41239662547754

Volg NOAA 16 DEB in realtime met AllMySat

Download on the App Store